This is the latest recevied weather packets stored in our database for station/object K7KAZ. If no packets are shown the sender has not sent any weather packets the latest 10 day(s).
| Time | Temp. | Humidity | Pressure | Rain* | Wind** | Luminosity | Snow |
|---|---|---|---|---|---|---|---|
| 1778052674 | 17.78° C | 40% | 1016 hPa | 0 mm | - | 0 W/m² | - |
| 1778052370 | 17.78° C | 41% | 1015.8 hPa | 0 mm | - | 0 W/m² | - |
| 1778052068 | 17.78° C | 40% | 1016.1 hPa | 0 mm | - | 0 W/m² | - |
| 1778051765 | 18.33° C | 39% | 1015.9 hPa | 0 mm | - | 0 W/m² | - |
| 1778051463 | 18.33° C | 39% | 1016.1 hPa | 0 mm | - | 0 W/m² | - |
| 1778051160 | 18.33° C | 39% | 1016 hPa | 0 mm | - | 0 W/m² | - |
| 1778050857 | 18.33° C | 39% | 1015.7 hPa | 0 mm | - | 0 W/m² | - |
| 1778050555 | 18.33° C | 38% | 1015.8 hPa | 0 mm | - | 0 W/m² | - |
| 1778050251 | 18.89° C | 38% | 1015.8 hPa | 0 mm | - | 0 W/m² | - |
| 1778049948 | 18.89° C | 38% | 1015.8 hPa | 0 mm | - | 0 W/m² | - |
| 1778049643 | 18.89° C | 38% | 1015.6 hPa | 0 mm | - | 0 W/m² | - |
| 1778049342 | 18.89° C | 37% | 1015.6 hPa | 0 mm | - | 0 W/m² | - |
| 1778049039 | 18.89° C | 37% | 1015.7 hPa | 0 mm | - | 0 W/m² | - |
| 1778048737 | 18.89° C | 37% | 1015.8 hPa | 0 mm | - | 0 W/m² | - |
| 1778048434 | 19.44° C | 37% | 1015.8 hPa | 0 mm | - | 0 W/m² | - |
| 1778048129 | 19.44° C | 36% | 1015.7 hPa | 0 mm | - | 0 W/m² | - |
| 1778047827 | 19.44° C | 36% | 1015.8 hPa | 0 mm | - | 0 W/m² | - |
| 1778047526 | 19.44° C | 36% | 1015.7 hPa | 0 mm | - | 0 W/m² | - |
| 1778047223 | 19.44° C | 36% | 1015.7 hPa | 0 mm | - | 0 W/m² | - |
| 1778046920 | 19.44° C | 36% | 1015.3 hPa | 0 mm | - | 0 W/m² | - |
| 1778046616 | 19.44° C | 36% | 1015.5 hPa | 0 mm | - | 0 W/m² | - |
| 1778046313 | 19.44° C | 35% | 1015.5 hPa | 0 mm | - | 0 W/m² | - |
| 1778046009 | 20° C | 35% | 1015.3 hPa | 0 mm | - | 0 W/m² | - |
| 1778045708 | 19.44° C | 35% | 1015.6 hPa | 0 mm | - | 0 W/m² | - |
| 1778045405 | 20° C | 35% | 1015.5 hPa | 0 mm | - | 0 W/m² | - |
* Rain latest hour (hover to see other rain measurements)
** Current wind speed in m/s (hover to see current wind gust speed)